61P/Shajn-Schaldach (2008)

Japanese version
Home page
Updated on March 20, 2010

---------------------------------------------------------------------

* Profile

* Pictures

* Orbital Elements

The following orbital elements are taken from MPC 63377:

Epoch 2008 Sept. 11.0 TT = JDT 2454720.5
T 2008 Sept. 6.0737 TT                                  MPC
q   2.107991             (2000.0)            P               Q
n   0.1398566      Peri.  221.6212      +0.9071709      -0.4196625
a   3.675763       Node   163.1168      +0.4083927      +0.8608085
e   0.426516       Incl.    6.0091      +0.1012737      +0.2879097
P   7.05
From 138 observations 1985-2008, mean residual 0".8.  Nongravitational
     parameters A1 = +0.53, A2 = -0.1732.

* Finding Charts

* Magnitudes Graph

        m1 = 11.5 + 5 log d + 10.0 log r(t + 65)

---------------------------------------------------------------------

The orbital elements are published at the MPC Ephemerides and Orbital Elements.
The charts are made with StellaNavigator Ver.2.0 for Windows (AstroArts / ASCII).
The magnitudes graphs are made with Comet for Windows.

---------------------------------------------------------------------

Copyright(C) Seiichi Yoshida (comet@aerith.net). All rights reserved.